Главная страница
METAR-TAF:

METAR-TAF

Аэропорты :

Бекешчаба, Венгрия

широта: 46-41-00N, долгота: 021-09-45E, высота над уровнем моря: 86 м

Текущие метеонаблюдения

Эта сводка был подготовлена 44 минут назад, в 05:45 UTC
Штиль
Температура 8°C
Влажность 93%
Давление 1025 hPa
Видимость: 6000 м

METAR: LHBC 220545Z 00000KT 6000 NSC 08/07 Q1025

Время: 08:29 (06:29 UTC)


TAF: отсутствует

Метеонаблюдения и прогнозы для более 4000 аэропортов (сводки METAR и TAF).

Имеющиеся станции представлены на карте желтыми и красными точками.

Чтобы увидеть название станции, наведите на нее мышь.

Затем щелкните, чтобы увидеть метеонаблюдения и метеопрогнозы.

Управление картой: чтобы увеличить масштаб, щелкните зеленые кнопки с черным крестиком; чтобы уменьшить масштаб, щелкните зеленую кнопку с тире; для просмотра соседних карт щелкайте зеленые стрелки.


METAR-TAF: